Volver al catálogo

COSMOS 1285 DEB

LostHEO
NORAD 29296·DEBRIS·🇷🇺 Russia

Lanzado Aug 4, 1981 desde Plesetsk Cosmodrome

Loading…

Próximos Pases (próximas 24 horas)

TLE

ObsoletoSource: Space-Track

Época: Apr 25, 2012, 07:26 UTC

1 29296U 81071W   12116.31004034  .00000717  00000-0  00000+0 0  9995
2 29296  68.9543 352.0231 6062649 130.5474  25.7256  1.98194815 70187

Sigue COSMOS 1285 DEB en tiempo real con AllMySat

Download on the App Store